Voltar ao catálogo

ONEWEB-0520

AtivoComunicaçõesPO
NORAD 54138·PAYLOAD·🇬🇧 United Kingdom

Lançado Oct 22, 2022 de Satish Dhawan Space Centre

Loading…

Próximas Passagens (próximas 24 horas)

TLE

AtualizadoSource: CelesTrak SupGP

Época: Sep 14, 2026, 18:04 UTC

1 54138C 22138AB  26257.75329120 -.00002412  00000+0 -60308-2 0  2574
2 54138  87.9115 287.1282 0002016  86.2154 311.8410 13.19729208    10

Acompanhe ONEWEB-0520 em tempo real com AllMySat

Download on the App Store